Weather History for Avoca, PA

Change the Weather History Date:

Sunday, November 25, 2012

  Actual Average Record
Temperature  
Mean Temperature 34 °F 38 °F  
Max Temperature 36 °F 45 °F 70 °F (1979)
Min Temperature 31 °F 31 °F 7 °F (1938)
Degree Days  
Heating Degree Days 31 27  
Month to date heating degree days 611 569  
Since 1 July heating degree days 1069 1172  
Cooling Degree Days 0 0  
Month to date cooling degree days 0 0  
Year to date cooling degree days 864 580  
Moisture  
Dew Point 19 °F    
Average Humidity 55    
Maximum Humidity 61    
Minimum Humidity 49    
Precipitation  
Precipitation 0.00 in 0.11 in 3.46 in (1950)
Month to date precipitation 0.84 2.61  
Year to date precipitation 33.92 35.05  
Sea Level Pressure  
Sea Level Pressure 29.90 in    
Wind  
Wind Speed 11 mph (WSW)    
Max Wind Speed 20 mph    
Max Gust Speed 26 mph    
Visibility 10 miles    
Events      
T = Trace of Precipitation, MM = Missing Value Source: NWS Daily Summary

Daily Weather History Graph

Daily Weather History Graph

Search for Another Location

Airport:

Trip Planner

Search our weather history database for the weather conditions in past years. The results will help you decide how hot, cold, wet, or windy it might be!

Date:

Astronomy

Nov. 25, 2012 Rise Set
Actual Time 7:03 AM EST 4:36 PM EST
Civil Twilight 6:32 AM EST 5:06 PM EST
Nautical Twilight 5:58 AM EST 5:40 PM EST
Astronomical Twilight 5:25 AM EST 6:13 PM EST
Moon 2:53 PM EST (11/25) 4:13 AM EST (11/25)
Length of Visible Light 10h 33m
Length of Day
9h 33m
Waxing Gibbous, 93% of the Moon is Illuminated
Nov 25
Waxing Gibbous
Nov 28
Full
Dec 6
Last Quarter
Dec 13
New
Dec 20
First Quarter

Hourly Weather History & Observations

Time (EST) Temp. Windchill Dew Point Humidity Pressure Visibility Wind Dir Wind Speed Gust Speed Precip Events Conditions
12:54 AM 32.0 °F 20.8 °F 16.0 °F 52% 29.87 in 10.0 mi NW 17.3 mph 26.5 mph N/A   Overcast
1:54 AM 32.0 °F 23.0 °F 17.1 °F 54% 29.89 in 10.0 mi NW 11.5 mph - N/A   Overcast
2:54 AM 32.0 °F 22.5 °F 15.1 °F 50% 29.91 in 10.0 mi NW 12.7 mph - N/A   Overcast
3:54 AM 30.9 °F 20.2 °F 14.0 °F 50% 29.91 in 10.0 mi WNW 15.0 mph 20.7 mph N/A   Overcast
4:54 AM 30.9 °F 24.3 °F 15.1 °F 52% 29.91 in 10.0 mi WNW 6.9 mph - N/A   Overcast
5:54 AM 32.0 °F 24.2 °F 16.0 °F 52% 29.92 in 10.0 mi WNW 9.2 mph - N/A   Overcast
6:54 AM 32.0 °F 24.8 °F 17.1 °F 54% 29.92 in 10.0 mi West 8.1 mph - N/A   Overcast
7:54 AM 32.0 °F 25.6 °F 18.0 °F 56% 29.93 in 10.0 mi WSW 6.9 mph - N/A   Overcast
8:54 AM 32.0 °F 24.2 °F 19.9 °F 61% 29.92 in 10.0 mi SW 9.2 mph - N/A   Overcast
9:54 AM 33.1 °F 23.9 °F 19.9 °F 59% 29.92 in 10.0 mi SW 12.7 mph - N/A   Overcast
10:54 AM 33.1 °F 23.9 °F 21.0 °F 61% 29.91 in 10.0 mi SW 12.7 mph 25.3 mph N/A   Overcast
11:54 AM 33.1 °F 26.1 °F 21.0 °F 61% 29.89 in 10.0 mi WSW 8.1 mph 20.7 mph N/A   Overcast
12:54 PM 34.0 °F 25.5 °F 21.0 °F 59% 29.87 in 10.0 mi WSW 11.5 mph 20.7 mph N/A   Overcast
1:54 PM 35.1 °F 26.9 °F 21.0 °F 57% 29.86 in 10.0 mi WSW 11.5 mph - N/A   Overcast
2:54 PM 35.1 °F 26.4 °F 21.0 °F 57% 29.85 in 10.0 mi WSW 12.7 mph - N/A   Overcast
3:54 PM 35.1 °F 29.3 °F 19.9 °F 54% 29.86 in 10.0 mi WSW 6.9 mph - N/A   Overcast
4:54 PM 34.0 °F 25.5 °F 19.9 °F 56% 29.86 in 10.0 mi WSW 11.5 mph - N/A   Overcast
5:54 PM 34.0 °F 25.0 °F 19.9 °F 56% 29.88 in 10.0 mi WSW 12.7 mph - N/A   Overcast
6:54 PM 33.1 °F 23.9 °F 21.0 °F 61% 29.90 in 10.0 mi WSW 12.7 mph - N/A   Overcast
7:54 PM 33.1 °F 26.1 °F 21.0 °F 61% 29.92 in 10.0 mi WSW 8.1 mph - N/A   Overcast
8:54 PM 33.1 °F 26.9 °F 21.0 °F 61% 29.93 in 10.0 mi WSW 6.9 mph - N/A   Overcast
9:54 PM 34.0 °F 25.5 °F 19.9 °F 56% 29.91 in 10.0 mi SW 11.5 mph - N/A   Overcast
10:54 PM 34.0 °F 25.0 °F 19.9 °F 56% 29.92 in 10.0 mi SW 12.7 mph 21.9 mph N/A   Overcast
11:54 PM 34.0 °F 25.5 °F 19.9 °F 56% 29.92 in 10.0 mi SW 11.5 mph - N/A   Overcast